Regional Weather Roundup
Issued by NWS

Home | Current Version | Previous Version | Graphics & Text | Print | Product List | Glossary On
Versions: 1 2 3 4 5 6 7 8 9 10 11 12 13 14 15 16 17 18 19 20 21 22 23 24 25 26 27 28 29 30 31 32 33 34 35 36 37 38 39 40 41 42 43 44 45 46 47 48 49 50
000
ASUS43 KOAX 190010
RWRNE

WEATHER ROUNDUP FOR NEBRASKA
NATIONAL WEATHER SERVICE OMAHA NE
600 PM CST SUN FEB 18 2018

NOTES: SATELLITE DATA IS BEING USED TO AUGMENT CLOUD COVER ABOVE
       12000 FEET.
       "FAIR" INDICATES FEW OR NO CLOUDS BELOW 12,000 FEET WITH NO
       SIGNIFICANT WEATHER AND/OR OBSTRUCTIONS TO VISIBILITY.


NEZ001>004-019>022-054>056-190100-
NEBRASKA PANHANDLE

CITY           SKY/WX    TMP DP  RH WIND       PRES   REMARKS
SCOTTSBLUFF    CLOUDY    24  19  81 NE23      29.63R WCI   9
6HR MIN TEMP:  24; 6HR MAX TEMP:  64;

ALLIANCE       CLOUDY    20  18  92 NE23      29.63R WCI   3
6HR MIN TEMP:  20; 6HR MAX TEMP:  47;

CHADRON        LGT SNOW  15   9  76 NE23G29   29.76R WCI  -3
6HR MIN TEMP:  15; 6HR MAX TEMP:  40; 6HR PCP: TRACE;

GORDON         FLURRIES  17  11  80 N18G30    29.69R WCI   0
6HR MIN TEMP:  17; 6HR MAX TEMP:  37;

KIMBALL        MOCLDY    33  28  81 NE24G30   29.51R WCI  20
SIDNEY         PTCLDY    34  27  75 NE24G36   29.51R WCI  21
6HR MIN TEMP:  34; 6HR MAX TEMP:  68;

$$

NEZ057>060-069>072-079>082-190100-
SOUTHWEST NEBRASKA

CITY           SKY/WX    TMP DP  RH WIND       PRES   REMARKS
NORTH PLATTE   CLEAR     38  29  70 NE25G36   29.54R WCI  27
6HR MIN TEMP:  38; 6HR MAX TEMP:  56;

IMPERIAL       CLEAR     49  33  54 NE15      29.45R
6HR MIN TEMP:  49; 6HR MAX TEMP:  62;

LEXINGTON      CLEAR     46  34  63 N14       29.51S
MCCOOK         CLEAR     55  33  43 NE9       29.42S
6HR MIN TEMP:  49; 6HR MAX TEMP:  64;

OGALLALA       PTCLDY    35  28  76 NE28G35   29.54R WCI  22
$$

NEZ005>010-023>029-035>040-094-190100-
NORTH CENTRAL NEBRASKA

CITY           SKY/WX    TMP DP  RH WIND       PRES   REMARKS
VALENTINE      CLOUDY    22  17  81 N21G26    29.73R WCI   6
6HR MIN TEMP:  22; 6HR MAX TEMP:  42;

AINSWORTH      CLOUDY    25  23  93 N18G25    29.70R WCI  11
BROKEN BOW     CLEAR     38  29  70 N28G35    29.59R WCI  26
6HR MIN TEMP:  38; 6HR MAX TEMP:  54;

O`NEILL        CLOUDY    31  26  83 N20       29.67R WCI  18
ORD            CLEAR     36  27  69 N22       29.61R WCI  25
6HR MIN TEMP:  36; 6HR MAX TEMP:  56;

THEDFORD       CLOUDY    28  23  84 N18G25    29.67R WCI  15
$$

NEZ041-046>049-061>064-073>077-083>087-190100-
SOUTH CENTRAL NEBRASKA

CITY           SKY/WX    TMP DP  RH WIND       PRES   REMARKS
GRAND ISLAND   CLEAR     47  35  63 N10       29.53R
6HR MIN TEMP:  47; 6HR MAX TEMP:  60;

AURORA         CLEAR     54  36  49 SE3       29.53R
HASTINGS       CLEAR     56  34  43 CALM      29.50R
6HR MIN TEMP:  51; 6HR MAX TEMP:  63;

HEBRON         CLOUDY    58  42  54 S20G26    29.50F
HOLDREGE       CLEAR     52  33  47 N6        29.47R
KEARNEY        CLEAR     49  35  58 N14       29.51R
YORK           CLEAR     54  39  58 S7        29.54R
$$

NEZ011>018-030>034-042>045-190100-
NORTHEAST NEBRASKA

CITY           SKY/WX    TMP DP  RH WIND       PRES   REMARKS
NORFOLK        CLEAR     38  30  73 N12G20    29.58R WCI  30
6HR MIN TEMP:  38; 6HR MAX TEMP:  52;

ALBION         CLEAR     40  32  71 N15G21    29.58R WCI  32
BLAIR          CLOUDY    51  36  56 S12G17    29.58R
COLUMBUS       CLEAR     45  35  68 N9        29.57R
FREMONT        CLEAR     51  37  59 S8        29.58R
TEKAMAH        CLEAR     44  37  76 S12       29.57R
6HR MIN TEMP:  44; 6HR MAX TEMP:  53;

WAYNE          CLEAR     38  32  78 NW13      29.59R WCI  31
$$

NEZ050>053-065>068-078-088>093-190100-
SOUTHEAST NEBRASKA

CITY           SKY/WX    TMP DP  RH WIND       PRES   REMARKS
LINCOLN        CLOUDY    51  39  63 S10       29.58R
6HR MIN TEMP:  51; 6HR MAX TEMP:  58;

OMAHA EPPLEY   CLOUDY    49  33  54 S8        29.59S
6HR MIN TEMP:  49; 6HR MAX TEMP:  56;

BEATRICE       CLOUDY    55  43  62 S16G23    29.56S
FALLS CITY     CLOUDY    53  38  56 S17G33    29.62F
6HR MIN TEMP:  52; 6HR MAX TEMP:  57;

NEBRASKA CITY  CLOUDY    53  40  61 S18       29.61R
PLATTSMOUTH    CLOUDY    52  38  59 S8        29.60R
$$

NEZ044-045-051>053-067-190100-
OMAHA AREA

CITY           SKY/WX    TMP DP  RH WIND       PRES   REMARKS
OMAHA EPPLEY   CLOUDY    49  33  54 S8        29.59S
6HR MIN TEMP:  49; 6HR MAX TEMP:  56;

BLAIR          CLOUDY    51  36  56 S12G17    29.58R
FREMONT        CLEAR     51  37  59 S8        29.58R
MILLARD        CLOUDY    55  40  57 S5        29.60R
OFFUTT AFB     CLOUDY    51  37  58 S9        29.59S
PLATTSMOUTH    CLOUDY    52  38  59 S8        29.60R
WAHOO          FAIR      50  38  62 S14       29.57S
$$




USA.gov is the U.S. government's official web portal to all federal, state and local government web resources and services.